Left ArrowRight Arrow

Hourly Observations for June 17, 2024

Temp ( °F °C ) Dew Point ( °F °C ) Humidity (%) Winds ( mph kmh ) Pressure ( in mb ) Visibility ( mi km ) Precip ( " mm )
12:53 am 00:53 Clear 66 18.9 37 2.8 34 34 NW 6 9 29.79 1009 10 16 0.00 0.00
1:53 am 01:53 Clear 65 18.3 36 2.2 34 34 WNW 8 13 29.81 1009 10 16 0.00 0.00
2:53 am 02:53 Clear 65 18.3 35 1.7 33 33 N 12 19 29.82 1010 10 16 0.00 0.00
3:53 am 03:53 Clear 64 17.8 33 0.6 31 31 N 15 24 29.85 1011 10 16 0.00 0.00
4:53 am 04:53 Clear 63 17.2 31 -0.6 30 30 N 7 11 29.87 1011 10 16 0.00 0.00
5:53 am 05:53 Sunny 62 16.7 31 -0.6 31 31 N 14 22 29.89 1012 10 16 0.00 0.00
6:53 am 06:53 Sunny 63 17.2 32 0 31 31 N 15 24 29.92 1013 10 16 0.00 0.00
7:53 am 07:53 Sunny 64 17.8 32 0 30 30 N 16 26 29.94 1014 10 16 0.00 0.00
8:53 am 08:53 Sunny 66 18.9 30 -1.1 26 26 NNE 21 33 29.96 1014 10 16 0.00 0.00
10:53 am 10:53 Sunny 71 21.7 29 -1.7 21 21 N 8 13 29.95 1014 10 16 0.00 0.00
11:53 am 11:53 Sunny 72 22.2 29 -1.7 20 20 NW 7 11 29.94 1014 10 16 0.00 0.00
12:53 pm 12:53 Sunny 75 23.9 29 -1.7 18 18 VRB 7 11 29.93 1014 10 16 0.00 0.00
1:53 pm 13:53 Sunny 78 25.6 29 -1.7 16 16 N 10 17 29.91 1013 10 16 0.00 0.00
2:53 pm 14:53 Sunny 79 26.1 27 -2.8 15 15 VRB 7 11 29.90 1013 10 16 0.00 0.00
3:53 pm 15:53 Sunny 81 27.2 27 -2.8 14 14 N 9 15 29.88 1012 10 16 0.00 0.00
4:53 pm 16:53 Sunny 84 28.9 25 -3.9 11 11 NNE 8 13 29.85 1011 10 16 0.00 0.00
5:53 pm 17:53 Sunny 83 28.3 26 -3.3 12 12 undefined N/A 29.84 1010 10 16 0.00 0.00
6:53 pm 18:53 Sunny 84 28.9 27 -2.8 12 12 E 5 7 29.83 1010 10 16 0.00 0.00
7:53 pm 19:53 Sunny 82 27.8 29 -1.7 14 14 NNW 3 6 29.83 1010 10 16 0.00 0.00
8:53 pm 20:53 Clear 74 23.3 36 2.2 25 25 NW 3 6 29.83 1010 10 16 0.00 0.00
9:53 pm 21:53 Clear 74 23.3 35 1.7 24 24 N 5 7 29.84 1011 10 16 0.00 0.00
10:53 pm 22:53 Clear 72 22.2 36 2.2 27 27 NW 5 7 29.85 1011 10 16 0.00 0.00
11:53 pm 23:53 Clear 68 20 37 2.8 32 32 N 6 9 29.84 1011 10 16 0.00 0.00

Powered by Vaisala Xweather